Location: Lancaster
(34.6980°N, 118.1360°W)
Time: 10:17:13
(UTC-08:00)

Tiangong 1 - Pass Details

Date: 14 November 2017
Orbit: 284 x 308 km, 42.8° (Epoch: 23 November)

Event Time Altitude Azimuth Distance (km) Brightness Sun altitude
Exits shadow 05:05:12 37° 194° (SSW) 468 1.4 -16.7°
Drops below altitude 10° 05:07:19 10° 141° (SE) 1,132 4.2 -16.3°
Sets 05:09:19 0° 133° (SE) 1,953 5.7 -15.9°
